Hourly Weather Godziszewo

Today, 7 May, Friday

Time Temperature Precipitation Wind Pressure Humidity
00:00 +5°C° 0 mm 1 mps 749 mmHg 82%
01:00 +4°C° 0 mm 1 mps 749 mmHg 83%
02:00 +4°C° 0 mm 1 mps 749 mmHg 83%
03:00 +4°C° 0 mm 1 mps 749 mmHg 84%
04:00 +4°C° 0 mm 1 mps 749 mmHg 84%
05:00 +5°C° 0 mm 1 mps 749 mmHg 80%
06:00 +5°C° 0 mm 2 mps 749 mmHg 76%
07:00 +6°C° 0 mm 2 mps 750 mmHg 72%
08:00 +7°C° 0.1 mm 3 mps 750 mmHg 68%
09:00 +8°C° 0.1 mm 3 mps 750 mmHg 63%
10:00 +8°C° 0.1 mm 4 mps 750 mmHg 59%
11:00 +7°C° 0.2 mm 5 mps 751 mmHg 61%
12:00 +7°C° 0.2 mm 5 mps 751 mmHg 64%
13:00 +5°C° 0.2 mm 6 mps 752 mmHg 66%
14:00 +5°C° 0.1 mm 6 mps 752 mmHg 68%
15:00 +6°C° 0.1 mm 5 mps 752 mmHg 69%
16:00 +6°C° 0.1 mm 5 mps 752 mmHg 71%
17:00 +6°C° 0.2 mm 4 mps 753 mmHg 75%
18:00 +5°C° 0.2 mm 4 mps 753 mmHg 80%
19:00 +5°C° 0.2 mm 4 mps 753 mmHg 84%
20:00 +4°C° 0 mm 4 mps 754 mmHg 88%
21:00 +3°C° 0 mm 4 mps 755 mmHg 91%
22:00 +3°C° 0 mm 4 mps 755 mmHg 94%
23:00 +1°C° 0 mm 4 mps 755 mmHg 95%

Tomorrow, 8 May, Saturday

Time Temperature Precipitation Wind Pressure Humidity
00:00 +1°C° 0 mm 4 mps 756 mmHg 95%
01:00 +1°C° 0 mm 3 mps 756 mmHg 96%
02:00 0°C° 0 mm 4 mps 756 mmHg 96%
03:00 0°C° 0 mm 4 mps 756 mmHg 97%
04:00 0°C° 0 mm 4 mps 757 mmHg 97%
05:00 +1°C° 0 mm 4 mps 757 mmHg 94%
06:00 +2°C° 0 mm 5 mps 757 mmHg 91%
07:00 +2°C° 0 mm 5 mps 758 mmHg 88%
08:00 +5°C° 0 mm 5 mps 758 mmHg 80%
09:00 +6°C° 0 mm 5 mps 758 mmHg 73%
10:00 +7°C° 0 mm 5 mps 758 mmHg 66%
11:00 +8°C° 0 mm 5 mps 758 mmHg 59%
12:00 +9°C° 0 mm 5 mps 759 mmHg 53%
13:00 +10°C° 0 mm 5 mps 759 mmHg 46%
14:00 +12°C° 0 mm 5 mps 759 mmHg 46%
15:00 +12°C° 0 mm 4 mps 758 mmHg 46%
16:00 +12°C° 0 mm 3 mps 758 mmHg 46%
17:00 +10°C° 0 mm 3 mps 758 mmHg 53%
18:00 +9°C° 0 mm 2 mps 758 mmHg 61%
19:00 +8°C° 0 mm 2 mps 758 mmHg 68%
20:00 +7°C° 0 mm 2 mps 758 mmHg 69%
21:00 +5°C° 0 mm 3 mps 758 mmHg 70%
22:00 +5°C° 0 mm 3 mps 758 mmHg 72%
23:00 +5°C° 0 mm 4 mps 758 mmHg 68%

Day after tomorrow, 9 May, Sunday

Time Temperature Precipitation Wind Pressure Humidity
00:00 +5°C° 0 mm 4 mps 758 mmHg 64%
01:00 +6°C° 0 mm 5 mps 757 mmHg 61%
02:00 +6°C° 0 mm 5 mps 757 mmHg 61%
03:00 +6°C° 0 mm 5 mps 756 mmHg 62%
04:00 +5°C° 0 mm 6 mps 756 mmHg 62%
05:00 +7°C° 0 mm 6 mps 756 mmHg 63%
06:00 +7°C° 0 mm 6 mps 755 mmHg 65%
07:00 +7°C° 0 mm 6 mps 755 mmHg 66%
08:00 +10°C° 0 mm 6 mps 755 mmHg 63%
09:00 +13°C° 0 mm 6 mps 755 mmHg 59%
10:00 +15°C° 0 mm 7 mps 755 mmHg 56%
11:00 +17°C° 0 mm 7 mps 755 mmHg 54%
12:00 +18°C° 0 mm 7 mps 755 mmHg 52%
13:00 +21°C° 0 mm 7 mps 755 mmHg 51%
14:00 +21°C° 0 mm 6 mps 754 mmHg 53%
15:00 +22°C° 0 mm 6 mps 754 mmHg 54%
16:00 +22°C° 0 mm 6 mps 754 mmHg 56%
17:00 +20°C° 0 mm 5 mps 754 mmHg 62%
18:00 +19°C° 0 mm 5 mps 754 mmHg 67%
19:00 +18°C° 0 mm 4 mps 754 mmHg 73%
20:00 +16°C° 0 mm 5 mps 754 mmHg 77%
21:00 +14°C° 0 mm 5 mps 754 mmHg 81%
22:00 +13°C° 0 mm 5 mps 754 mmHg 84%
23:00 +13°C° 0 mm 5 mps 754 mmHg 84%

10 May, Monday

Time Temperature Precipitation Wind Pressure Humidity
00:00 +12°C° 0 mm 5 mps 754 mmHg 83%
01:00 +10°C° 0 mm 5 mps 754 mmHg 83%
02:00 +10°C° 0 mm 5 mps 754 mmHg 80%
03:00 +10°C° 0 mm 5 mps 754 mmHg 78%
04:00 +9°C° 0 mm 5 mps 753 mmHg 76%
05:00 +10°C° 0 mm 6 mps 753 mmHg 73%
06:00 +11°C° 0 mm 6 mps 753 mmHg 70%
07:00 +13°C° 0 mm 6 mps 753 mmHg 67%
08:00 +15°C° 0 mm 7 mps 753 mmHg 62%
09:00 +17°C° 0 mm 7 mps 753 mmHg 58%
10:00 +18°C° 0 mm 7 mps 753 mmHg 54%
11:00 +20°C° 0 mm 7 mps 753 mmHg 54%
12:00 +21°C° 0 mm 6 mps 753 mmHg 53%
13:00 +21°C° 0 mm 6 mps 753 mmHg 53%
14:00 +22°C° 0 mm 5 mps 753 mmHg 53%
15:00 +23°C° 0 mm 5 mps 753 mmHg 54%
16:00 +23°C° 0 mm 4 mps 753 mmHg 55%
17:00 +22°C° 0 mm 3 mps 753 mmHg 61%
18:00 +21°C° 0 mm 2 mps 753 mmHg 67%
19:00 +21°C° 0 mm 1 mps 753 mmHg 74%
20:00 +19°C° 0 mm 1 mps 754 mmHg 77%
21:00 +17°C° 0 mm 2 mps 754 mmHg 81%
22:00 +16°C° 0 mm 2 mps 754 mmHg 85%
23:00 +16°C° 0 mm 2 mps 754 mmHg 87%

11 May, Tuesday

Time Temperature Precipitation Wind Pressure Humidity
00:00 +16°C° 0 mm 3 mps 753 mmHg 88%
01:00 +14°C° 0 mm 3 mps 753 mmHg 90%
02:00 +14°C° 0 mm 3 mps 753 mmHg 91%
03:00 +14°C° 0 mm 3 mps 753 mmHg 92%
04:00 +13°C° 0 mm 4 mps 753 mmHg 93%
05:00 +14°C° 0 mm 4 mps 753 mmHg 88%
06:00 +15°C° 0 mm 4 mps 752 mmHg 83%
07:00 +16°C° 0 mm 5 mps 752 mmHg 77%
08:00 +19°C° 0 mm 5 mps 752 mmHg 73%
09:00 +20°C° 0 mm 5 mps 752 mmHg 69%
10:00 +21°C° 0 mm 5 mps 752 mmHg 65%
11:00 +22°C° 0 mm 5 mps 752 mmHg 62%
12:00 +23°C° 0 mm 4 mps 751 mmHg 60%
13:00 +25°C° 0 mm 4 mps 751 mmHg 57%
14:00 +25°C° 0 mm 4 mps 751 mmHg 59%
15:00 +25°C° 0 mm 3 mps 751 mmHg 61%
16:00 +25°C° 0 mm 3 mps 751 mmHg 62%
17:00 +22°C° 0 mm 3 mps 750 mmHg 68%
18:00 +21°C° 0 mm 3 mps 750 mmHg 75%
19:00 +19°C° 0 mm 2 mps 750 mmHg 81%
20:00 +18°C° 0 mm 2 mps 750 mmHg 83%
21:00 +17°C° 0 mm 2 mps 750 mmHg 85%
22:00 +16°C° 0 mm 1 mps 750 mmHg 87%
23:00 +16°C° 0 mm 2 mps 750 mmHg 88%

12 May, Wednesday

Time Temperature Precipitation Wind Pressure Humidity
00:00 +16°C° 0 mm 2 mps 750 mmHg 89%
01:00 +16°C° 0 mm 2 mps 750 mmHg 90%
02:00 +16°C° 0 mm 3 mps 749 mmHg 91%
03:00 +16°C° 0 mm 3 mps 749 mmHg 93%
04:00 +14°C° 0 mm 4 mps 749 mmHg 95%
05:00 +15°C° 0 mm 4 mps 748 mmHg 90%
06:00 +16°C° 0 mm 5 mps 748 mmHg 85%
07:00 +17°C° 0 mm 6 mps 748 mmHg 80%
08:00 +20°C° 0 mm 6 mps 748 mmHg 74%
09:00 +21°C° 0 mm 6 mps 748 mmHg 67%
10:00 +23°C° 0 mm 7 mps 748 mmHg 61%
11:00 +24°C° 0 mm 7 mps 748 mmHg 57%
12:00 +26°C° 0 mm 6 mps 747 mmHg 54%
13:00 +27°C° 0 mm 6 mps 747 mmHg 50%
14:00 +26°C° 0 mm 6 mps 747 mmHg 55%
15:00 +25°C° 0 mm 5 mps 747 mmHg 60%
16:00 +23°C° 0 mm 4 mps 747 mmHg 65%
17:00 +22°C° 1.4 mm 4 mps 747 mmHg 72%
18:00 +20°C° 1.4 mm 4 mps 747 mmHg 79%
19:00 +19°C° 1.4 mm 3 mps 747 mmHg 87%
20:00 +18°C° 1.3 mm 3 mps 748 mmHg 90%
21:00 +17°C° 1.3 mm 2 mps 748 mmHg 93%
22:00 +15°C° 1.3 mm 2 mps 749 mmHg 97%
23:00 +15°C° 0.3 mm 2 mps 749 mmHg 97%
Show more